Flag for Saint Lucia Weather past 2 weeks in Vieux Fort, Saint Lucia

Now
82 °F

Partly cloudy.


Feels Like: 89 °F
Forecast: 81 / 88 °F
Wind: 18 mph from East

Location: Hewanorra International Airport

Current Time: Oct 24, 2014 at 11:03:21 PM

Latest Report: Oct 24, 2014 at 10:00 PM


Visibility: N/A

Pressure: 29.89 "Hg

Humidity: 79%

Dew point: 75 °F

Location of Vieux FortLocation

Historic Weather in Vieux Fort — Graph

°F

Vieux Fort temperature yesterday

Maximum temperature yesterday: 88 °F (at 12:00 PM)
Minimum temperature yesterday: 81 °F (at 5:00 AM)
Average temperature yesterday: 83 °F

Past Weeks' High & Low Weather Summary

 TemperatureHumidityPressure
High88 °F (Oct 10, 11:00 AM)100% (Oct 10, 4:00 AM)30.01 "Hg (Oct 10, 4:00 AM)
Low70 °F (Oct 14, 10:00 AM)66% (Oct 10, 11:00 AM)29.83 "Hg (Oct 10, 1:00 AM)
Average82 °F82%29.91 "Hg
* Reported Oct 9 9:00 PM — Oct 24 9:00 PM, Vieux Fort, Weather by CustomWeather, © 2014

Note: Actual official high and low records may vary slightly from our data, if they occured in-between our weather recording intervals... More about our weather records

Advertising

Vieux Fort weather history for previous 24 hours

 ConditionsComfort  
Time TempWeatherWind HumidityBarometerVisibility
9:00 PM
Oct 24
82 °FPassing clouds.18 mph79%29.89 "HgN/A
8:00 PM82 °FPartly cloudy.17 mph84%29.95 "HgN/A
7:00 PM82 °FPassing clouds.14 mph79%29.86 "HgN/A
5:00 PM84 °FPartly sunny.13 mph79%29.83 "HgN/A
4:00 PM84 °FPartly sunny.13 mph79%29.86 "HgN/A
3:00 PM84 °FBroken clouds.14 mph79%29.86 "HgN/A
2:00 PM84 °FBroken clouds.15 mph79%29.89 "HgN/A
1:00 PM84 °FPassing clouds.14 mph79%29.92 "HgN/A
12:00 PM84 °FPartly sunny.10 mph79%29.92 "HgN/A
11:00 AM84 °FPartly sunny.14 mph79%29.95 "HgN/A
10:00 AM84 °FBroken clouds.13 mph79%29.98 "HgN/A
9:00 AM82 °FBroken clouds.10 mph84%29.95 "HgN/A
8:00 AM81 °FBroken clouds.12 mph89%29.92 "HgN/A
7:00 AM79 °FPartly sunny.9 mph94%29.92 "HgN/A
6:00 AM79 °FPartly sunny.12 mph89%29.92 "HgN/A
5:00 AM77 °FThundershowers. Passing clouds.6 mph94%29.89 "HgN/A
4:00 AM77 °FLight rain. Passing clouds.12 mph94%29.89 "HgN/A
3:00 AM77 °FThunderstorms. Partly cloudy.5 mph94%29.89 "Hg5 mi
2:00 AM75 °FThunderstorms. Partly cloudy.No wind100%29.89 "Hg5 mi
1:00 AM75 °FThunderstorms. Partly cloudy.No wind100%29.92 "HgN/A
12:00 AM81 °FScattered showers. Partly cloudy.8 mph84%29.92 "Hg5 mi
11:00 PM
Oct 23
82 °FWarm.13 mph84%29.92 "HgN/A
Weather by CustomWeather, © 2014

See weather overviewHow to use our weather pages